Time,TemperatureF,DewpointF,PressureIn,WindDirection,WindDirectionDegrees,WindSpeedMPH,WindSpeedGustMPH,Humidity,HourlyPrecipIn,Conditions,Clouds,dailyrainin,SoftwareType,DateUTC
2013-04-15 00:11:00,76.1,70.0,29.95,SE,133,1.0,2.0,82,0.00,,,0.00,weatherlink.com 1.10,2013-04-15 04:11:00,
2013-04-15 00:26:00,75.7,70.0,29.94,ESE,122,0.0,2.0,83,0.00,,,0.00,weatherlink.com 1.10,2013-04-15 04:26:00,
2013-04-15 00:41:00,75.5,70.0,29.94,SE,124,1.0,2.0,83,0.00,,,0.00,weatherlink.com 1.10,2013-04-15 04:41:00,
2013-04-15 00:56:00,75.1,70.0,29.94,SE,124,0.0,1.0,84,0.00,,,0.00,weatherlink.com 1.10,2013-04-15 04:56:00,
2013-04-15 01:11:00,74.7,70.0,29.94,SE,129,1.0,1.0,84,0.00,,,0.00,weatherlink.com 1.10,2013-04-15 05:11:00,
2013-04-15 01:27:00,74.3,69.0,29.93,SE,132,0.0,3.0,84,0.00,,,0.00,weatherlink.com 1.10,2013-04-15 05:27:00,
2013-04-15 01:42:00,74.0,69.0,29.93,ESE,110,1.0,2.0,85,0.00,,,0.00,weatherlink.com 1.10,2013-04-15 05:42:00,
2013-04-15 01:57:00,73.8,69.0,29.93,SE,136,1.0,2.0,85,0.00,,,0.00,weatherlink.com 1.10,2013-04-15 05:57:00,
2013-04-15 02:12:00,73.7,69.0,29.93,SE,129,1.0,2.0,85,0.00,,,0.00,weatherlink.com 1.10,2013-04-15 06:12:00,
2013-04-15 02:27:00,73.4,69.0,29.93,SE,131,0.0,2.0,85,0.00,,,0.00,weatherlink.com 1.10,2013-04-15 06:27:00,
2013-04-15 02:42:00,73.1,69.0,29.92,ESE,102,0.0,2.0,86,0.00,,,0.00,weatherlink.com 1.10,2013-04-15 06:42:00,
2013-04-15 02:57:00,73.0,69.0,29.92,SE,129,0.0,2.0,87,0.00,,,0.00,weatherlink.com 1.10,2013-04-15 06:57:00,
2013-04-15 03:42:00,72.4,69.0,29.92,SE,129,0.0,1.0,88,0.00,,,0.00,weatherlink.com 1.10,2013-04-15 07:42:00,
2013-04-15 04:12:00,72.0,68.0,29.93,SE,129,0.0,1.0,88,0.00,,,0.00,weatherlink.com 1.10,2013-04-15 08:12:00,
2013-04-15 04:27:00,71.8,69.0,29.93,SE,128,0.0,1.0,89,0.00,,,0.00,weatherlink.com 1.10,2013-04-15 08:27:00,
2013-04-15 04:42:00,71.8,69.0,29.93,SE,128,0.0,1.0,89,0.00,,,0.00,weatherlink.com 1.10,2013-04-15 08:42:00,
2013-04-15 04:57:00,71.5,68.0,29.93,SE,128,0.0,1.0,89,0.00,,,0.00,weatherlink.com 1.10,2013-04-15 08:57:00,
2013-04-15 05:12:00,72.0,69.0,29.94,SSE,160,0.0,2.0,89,0.00,,,0.00,weatherlink.com 1.10,2013-04-15 09:12:00,
2013-04-15 05:27:00,72.2,69.0,29.95,SE,134,1.0,2.0,89,0.00,,,0.00,weatherlink.com 1.10,2013-04-15 09:27:00,
2013-04-15 05:42:00,72.3,69.0,29.95,SE,145,0.0,1.0,89,0.00,,,0.00,weatherlink.com 1.10,2013-04-15 09:42:00,
2013-04-15 05:57:00,72.0,69.0,29.96,SSE,152,0.0,1.0,89,0.00,,,0.00,weatherlink.com 1.10,2013-04-15 09:57:00,
2013-04-15 06:12:00,72.0,69.0,29.96,SSE,148,0.0,1.0,89,0.00,,,0.00,weatherlink.com 1.10,2013-04-15 10:12:00,
2013-04-15 06:27:00,72.1,69.0,29.96,ESE,123,0.0,1.0,90,0.00,,,0.00,weatherlink.com 1.10,2013-04-15 10:27:00,
2013-04-15 06:42:00,72.4,69.0,29.97,ESE,123,1.0,2.0,89,0.00,,,0.00,weatherlink.com 1.10,2013-04-15 10:42:00,
2013-04-15 06:57:00,73.5,70.0,29.97,ESE,122,0.0,2.0,89,0.00,,,0.00,weatherlink.com 1.10,2013-04-15 10:57:00,
2013-04-15 07:12:00,75.9,71.0,29.97,SE,131,1.0,2.0,85,0.00,,,0.00,weatherlink.com 1.10,2013-04-15 11:12:00,
2013-04-15 07:27:00,79.3,72.0,29.98,SE,127,0.0,1.0,79,0.00,,,0.00,weatherlink.com 1.10,2013-04-15 11:27:00,
2013-04-15 07:42:00,79.4,72.0,29.98,SE,135,0.0,1.0,79,0.00,,,0.00,weatherlink.com 1.10,2013-04-15 11:42:00,
2013-04-15 08:10:00,81.1,73.0,29.99,ENE,75,5.0,7.0,77,0.00,,,0.00,weatherlink.com 1.10,2013-04-15 12:10:00,
2013-04-15 08:27:00,79.4,73.0,29.99,ENE,67,4.0,11.0,80,0.00,,,0.00,weatherlink.com 1.10,2013-04-15 12:27:00,
2013-04-15 08:42:00,80.1,73.0,29.99,NNE,15,4.0,10.0,80,0.00,,,0.00,weatherlink.com 1.10,2013-04-15 12:42:00,
2013-04-15 08:57:00,81.7,74.0,30.00,East,94,6.0,11.0,77,0.00,,,0.00,weatherlink.com 1.10,2013-04-15 12:57:00,
2013-04-15 09:13:00,83.0,74.0,30.00,ENE,70,5.0,9.0,73,0.00,,,0.00,weatherlink.com 1.10,2013-04-15 13:13:00,
2013-04-15 09:28:00,83.8,74.0,30.00,NNE,16,6.0,11.0,72,0.00,,,0.00,weatherlink.com 1.10,2013-04-15 13:28:00,
2013-04-15 09:43:00,81.4,72.0,30.00,NE,34,9.0,12.0,74,0.00,,,0.00,weatherlink.com 1.10,2013-04-15 13:43:00,
2013-04-15 09:58:00,81.9,72.0,30.00,ESE,104,8.0,10.0,73,0.00,,,0.00,weatherlink.com 1.10,2013-04-15 13:58:00,
2013-04-15 10:13:00,82.1,73.0,30.00,East,79,3.0,10.0,73,0.00,,,0.00,weatherlink.com 1.10,2013-04-15 14:13:00,
2013-04-15 10:28:00,83.4,73.0,30.00,East,97,5.0,13.0,71,0.00,,,0.00,weatherlink.com 1.10,2013-04-15 14:28:00,
2013-04-15 10:58:00,85.4,74.0,29.99,SE,124,3.0,8.0,68,0.00,,,0.00,weatherlink.com 1.10,2013-04-15 14:58:00,
2013-04-15 11:13:00,85.7,72.0,29.99,East,83,7.0,11.0,64,0.00,,,0.00,weatherlink.com 1.10,2013-04-15 15:13:00,
2013-04-15 11:28:00,85.9,72.0,29.98,SE,134,3.0,13.0,64,0.00,,,0.00,weatherlink.com 1.10,2013-04-15 15:28:00,
2013-04-15 11:43:00,85.8,73.0,29.98,East,82,7.0,12.0,65,0.00,,,0.00,weatherlink.com 1.10,2013-04-15 15:43:00,
2013-04-15 11:58:00,87.4,72.0,29.98,ENE,58,8.0,13.0,61,0.00,,,0.00,weatherlink.com 1.10,2013-04-15 15:58:00,
2013-04-15 12:28:00,87.7,73.0,29.97,East,94,5.0,11.0,61,0.00,,,0.00,weatherlink.com 1.10,2013-04-15 16:28:00,
2013-04-15 12:43:00,87.9,72.0,29.97,ENE,73,6.0,12.0,59,0.00,,,0.00,weatherlink.com 1.10,2013-04-15 16:43:00,
2013-04-15 12:59:00,87.9,72.0,29.96,East,81,6.0,13.0,59,0.00,,,0.00,weatherlink.com 1.10,2013-04-15 16:59:00,
2013-04-15 13:13:00,87.9,71.0,29.95,NE,53,5.0,13.0,58,0.00,,,0.00,weatherlink.com 1.10,2013-04-15 17:13:00,
2013-04-15 13:28:00,88.5,71.0,29.95,SE,129,5.0,10.0,57,0.00,,,0.00,weatherlink.com 1.10,2013-04-15 17:28:00,
2013-04-15 13:43:00,88.9,72.0,29.95,ENE,66,9.0,12.0,57,0.00,,,0.00,weatherlink.com 1.10,2013-04-15 17:43:00,
2013-04-15 13:58:00,88.3,72.0,29.94,NE,39,7.0,13.0,58,0.00,,,0.00,weatherlink.com 1.10,2013-04-15 17:58:00,
2013-04-15 14:13:00,88.0,71.0,29.93,SSE,156,6.0,14.0,58,0.00,,,0.00,weatherlink.com 1.10,2013-04-15 18:13:00,
2013-04-15 14:28:00,88.0,72.0,29.93,SE,124,8.0,14.0,60,0.00,,,0.00,weatherlink.com 1.10,2013-04-15 18:28:00,
2013-04-15 14:43:00,87.7,71.0,29.93,East,83,6.0,13.0,57,0.00,,,0.00,weatherlink.com 1.10,2013-04-15 18:43:00,
2013-04-15 14:58:00,87.8,72.0,29.92,NE,50,6.0,12.0,59,0.00,,,0.00,weatherlink.com 1.10,2013-04-15 18:58:00,
2013-04-15 15:13:00,87.7,72.0,29.92,ESE,117,7.0,13.0,59,0.00,,,0.00,weatherlink.com 1.10,2013-04-15 19:13:00,
2013-04-15 15:28:00,87.4,71.0,29.92,NE,50,12.0,15.0,58,0.00,,,0.00,weatherlink.com 1.10,2013-04-15 19:28:00,
2013-04-15 15:43:00,87.6,72.0,29.91,East,101,9.0,17.0,61,0.00,,,0.00,weatherlink.com 1.10,2013-04-15 19:43:00,
2013-04-15 15:58:00,87.3,71.0,29.91,ENE,70,7.0,16.0,59,0.00,,,0.00,weatherlink.com 1.10,2013-04-15 19:58:00,
2013-04-15 16:13:00,86.8,71.0,29.91,NE,52,4.0,13.0,60,0.00,,,0.00,weatherlink.com 1.10,2013-04-15 20:13:00,
2013-04-15 16:29:00,86.5,72.0,29.92,NE,49,11.0,14.0,62,0.00,,,0.00,weatherlink.com 1.10,2013-04-15 20:29:00,
2013-04-15 16:43:00,86.0,71.0,29.92,East,97,6.0,13.0,61,0.00,,,0.00,weatherlink.com 1.10,2013-04-15 20:43:00,
2013-04-15 16:58:00,85.4,71.0,29.92,East,94,5.0,13.0,62,0.00,,,0.00,weatherlink.com 1.10,2013-04-15 20:58:00,
2013-04-15 17:13:00,85.0,69.0,29.93,East,89,14.0,15.0,58,0.00,,,0.00,weatherlink.com 1.10,2013-04-15 21:13:00,
2013-04-15 17:28:00,84.3,73.0,29.93,East,89,9.0,12.0,68,0.00,,,0.00,weatherlink.com 1.10,2013-04-15 21:28:00,
2013-04-15 17:43:00,83.2,72.0,29.94,ESE,109,10.0,14.0,70,0.00,,,0.00,weatherlink.com 1.10,2013-04-15 21:43:00,
2013-04-15 17:58:00,82.3,74.0,29.94,ENE,62,3.0,12.0,76,0.00,,,0.00,weatherlink.com 1.10,2013-04-15 21:58:00,
2013-04-15 18:13:00,81.6,74.0,29.95,ENE,67,5.0,10.0,77,0.00,,,0.00,weatherlink.com 1.10,2013-04-15 22:13:00,
2013-04-15 18:28:00,81.0,74.0,29.95,North,7,2.0,11.0,78,0.00,,,0.00,weatherlink.com 1.10,2013-04-15 22:28:00,
2013-04-15 18:43:00,80.5,73.0,29.95,East,83,8.0,11.0,79,0.00,,,0.00,weatherlink.com 1.10,2013-04-15 22:43:00,
2013-04-15 18:58:00,80.1,73.0,29.96,ENE,78,3.0,9.0,80,0.00,,,0.00,weatherlink.com 1.10,2013-04-15 22:58:00,
2013-04-15 19:13:00,79.5,73.0,29.96,ENE,70,3.0,10.0,81,0.00,,,0.00,weatherlink.com 1.10,2013-04-15 23:13:00,
2013-04-15 19:28:00,79.2,73.0,29.97,ENE,73,1.0,10.0,81,0.00,,,0.00,weatherlink.com 1.10,2013-04-15 23:28:00,
2013-04-15 19:43:00,78.2,73.0,29.97,East,98,3.0,10.0,83,0.00,,,0.00,weatherlink.com 1.10,2013-04-15 23:43:00,
2013-04-15 19:58:00,77.7,73.0,29.97,ENE,72,5.0,8.0,85,0.00,,,0.00,weatherlink.com 1.10,2013-04-15 23:58:00,
2013-04-15 20:13:00,77.6,73.0,29.97,East,83,3.0,7.0,85,0.00,,,0.00,weatherlink.com 1.10,2013-04-16 00:13:00,
2013-04-15 20:28:00,77.9,73.0,29.97,East,100,2.0,5.0,85,0.00,,,0.00,weatherlink.com 1.10,2013-04-16 00:28:00,
2013-04-15 20:43:00,78.0,73.0,29.98,East,83,1.0,5.0,85,0.00,,,0.00,weatherlink.com 1.10,2013-04-16 00:43:00,
2013-04-15 20:58:00,78.3,73.0,29.98,East,79,1.0,3.0,84,0.00,,,0.00,weatherlink.com 1.10,2013-04-16 00:58:00,
2013-04-15 21:13:00,78.1,73.0,29.98,East,98,1.0,3.0,84,0.00,,,0.00,weatherlink.com 1.10,2013-04-16 01:13:00,
2013-04-15 21:28:00,78.4,73.0,29.99,SE,131,0.0,3.0,84,0.00,,,0.00,weatherlink.com 1.10,2013-04-16 01:28:00,
2013-04-15 21:43:00,78.3,73.0,29.98,East,84,2.0,3.0,83,0.00,,,0.00,weatherlink.com 1.10,2013-04-16 01:43:00,
2013-04-15 21:58:00,77.9,73.0,29.98,ESE,113,0.0,4.0,84,0.00,,,0.00,weatherlink.com 1.10,2013-04-16 01:58:00,
2013-04-15 22:14:00,77.7,72.0,29.98,SE,127,0.0,4.0,83,0.00,,,0.00,weatherlink.com 1.10,2013-04-16 02:14:00,
2013-04-15 22:29:00,77.6,73.0,29.99,ESE,122,1.0,4.0,84,0.00,,,0.00,weatherlink.com 1.10,2013-04-16 02:29:00,
2013-04-15 22:44:00,77.5,72.0,29.98,SE,134,1.0,5.0,83,0.00,,,0.00,weatherlink.com 1.10,2013-04-16 02:44:00,
2013-04-15 22:59:00,77.4,72.0,29.98,ESE,122,1.0,2.0,83,0.00,,,0.00,weatherlink.com 1.10,2013-04-16 02:59:00,
2013-04-15 23:14:00,77.2,72.0,29.98,East,100,2.0,2.0,83,0.00,,,0.00,weatherlink.com 1.10,2013-04-16 03:14:00,
2013-04-15 23:29:00,77.2,72.0,29.98,ENE,75,2.0,4.0,83,0.00,,,0.00,weatherlink.com 1.10,2013-04-16 03:29:00,
2013-04-15 23:44:00,77.1,72.0,29.98,ESE,105,2.0,2.0,83,0.00,,,0.00,weatherlink.com 1.10,2013-04-16 03:44:00,
2013-04-15 23:59:00,76.5,71.0,29.98,SE,139,2.0,3.0,83,0.00,,,0.00,weatherlink.com 1.10,2013-04-16 03:59:00,